カタログに戻る

FENGYUN 1C DEB

運用中SSO
NORAD 30441·DEBRIS·🇨🇳 China

打ち上げ May 10, 1999 から Taiyuan Satellite Launch Center

Loading…

次のパス (今後24時間)

TLE

最新Source: Space-Track

元期: Sep 14, 2026, 04:42 UTC

1 30441U 99025AFC 26257.19595493  .00000415  00000-0  40418-3 0  9994
2 30441  99.1236 341.0346 0183051 246.8571 111.3201 13.77952757986630

AllMySatでFENGYUN 1C DEBをリアルタイム追跡

Download on the App Store